Regional Weather Roundup
Issued by NWS

Home | Current Version | Previous Version | Text Only | Print | Product List | Glossary Off
Versions: 1 2 3 4 5 6 7 8 9 10 11 12 13 14 15 16 17 18 19 20 21 22 23 24 25 26 27 28 29 30 31 32 33 34 35 36 37 38 39 40 41 42 43 44 45 46 47 48 49 50

221
ASUS43 KBIS 180610
RWRND

NORTH DAKOTA REGIONAL WEATHER ROUNDUP
NATIONAL WEATHER SERVICE BISMARCK ND
1200 AM CST SAT NOV 18 2017

NOTE: "FAIR" INDICATES FEW OR NO CLOUDS BELOW 12,000 FEET WITH NO
SIGNIFICANT WEATHER AND/OR OBSTRUCTIONS TO VISIBILITY.


NDZ001>003-009>011-017-180700-
NORTHWEST NORTH DAKOTA

CITY           SKY/WX    TMP DP  RH WIND       PRES   REMARKS
WILLISTON      MOCLDY    14   7  73 N9        29.91R WCI   2
6HR MIN TEMP:  13; 6HR MAX TEMP:  30;

MINOT          CLOUDY    17  10  74 W10       29.83R WCI   5
MINOT AFB      CLOUDY    14   8  75 NW10      29.83R WCI   1
$$

NDZ018>021-031>035-040>046-180700-
SOUTHWEST NORTH DAKOTA

CITY           SKY/WX    TMP DP  RH WIND       PRES   REMARKS
BISMARCK       CLOUDY    28  26  92 NE6       29.79F
6HR MIN TEMP:  20; 6HR MAX TEMP:  32;

DICKINSON      CLEAR     27  22  81 W10       29.79R WCI  17
GARRISON         N/A     17  13  84 N8        29.82R WCI   7
6HR MIN TEMP:  17; 6HR MAX TEMP:  25;

HETTINGER ARPT CLEAR     25  22  88 NW7       29.84R WCI  17
$$

NDZ004>008-012>016-024-026-027-054-180700-
NORTHEAST NORTH DAKOTA

CITY           SKY/WX    TMP DP  RH WIND       PRES   REMARKS
GRAND FORKS    PTCLDY    15  12  88 NW5       29.82S WCI   8
GRND FRKS AFB  CLEAR     14  10  84 NW8       29.81F WCI   3
DEVILS LAKE    CLEAR     13  10  88 NW9       29.81R WCI   1
$$

NDZ022-023-025-028>030-036>039-047>053-180700-
SOUTHEAST NORTH DAKOTA

CITY           SKY/WX    TMP DP  RH WIND       PRES   REMARKS
FARGO          PTCLDY    22  17  81 NW9       29.81R WCI  12
6HR MIN TEMP:  21; 6HR MAX TEMP:  28;

JAMESTOWN      CLOUDY    17  14  88 W3        29.80R
$$





USA.gov is the U.S. government's official web portal to all federal, state and local government web resources and services.